Regional Weather Roundup
Issued by NWS Upton, NY

Current Version | Previous Version | Text Only | Print | Product List | Glossary Off
Versions: 1 2 3 4 5 6 7 8 9 10 11 12 13 14 15 16 17 18 19 20 21 22 23 24 25 26 27 28 29 30 31 32 33 34 35 36 37 38 39 40 41 42 43 44 45 46 47 48 49 50
000 ASUS41 KOKX 080604 RWROKX REGIONAL WEATHER ROUNDUP NATIONAL WEATHER SERVICE NEW YORK NY 100 AM EST MON FEB 08 2016 NOTE: "FAIR" INDICATES FEW OR NO CLOUDS BELOW 12,000 FEET WITH NO SIGNIFICANT WEATHER AND/OR OBSTRUCTIONS TO VISIBILITY. NYZ071-072-176-178-NJZ106-104-080700- NEW YORK CITY METRO AREA CITY SKY/WX TMP DP RH WIND PRES REMARKS CENTRAL PARK MOCLDY 39 21 48 NE15G21 29.88F WCI 31 LAGUARDIA APRT CLOUDY 39 26 59 NE20G25 29.86F WCI 29 KENNEDY INTL CLOUDY 39 26 59 NE22G29 29.86F WCI 29 NEWARK/LIBERTY CLOUDY 39 24 55 NE15G23 29.86F WCI 31 BRNX BOT. GARD N/A 37 21 52 NW3 29.86F TETERBORO CLOUDY 39 20 46 NE8G18 29.86F WCI 33 $$ NYZ177-179-078>081-080700- LONG ISLAND NEW YORK CITY SKY/WX TMP DP RH WIND PRES REMARKS FARMINGDALE CLOUDY 39 28 64 NE16 29.84F WCI 30 ISLIP CLOUDY 37 29 72 NE17G26 29.82F WCI 27 SHIRLEY CLOUDY 38 31 76 NE8G21 29.84F WCI 32 RIVERHEAD N/A 37 30 75 E7 29.81F WCI 32 WESTHAMPTON MOCLDY 38 31 76 NE17G25 29.85F WCI 28 EAST HAMPTON MOCLDY 38 32 79 NE16G23 29.84F WCI 29 MONTAUK POINT N/A 40 33 76 NE15G28 29.84F WCI 32 $$ NYZ052-065-067-080700- HUDSON VALLEY CITY SKY/WX TMP DP RH WIND PRES REMARKS WHITE PLAINS CLOUDY 36 21 54 NE9 29.85F WCI 29 NEWBURGH CLEAR 34 25 69 E12 29.91F WCI 25 MONTGOMERY CLOUDY 30 22 72 N9 29.90F WCI 22 POUGHKEEPSIE PTCLDY 30 22 72 N3 29.92F ALBANY CLOUDY 28 20 71 N5 29.99F WCI 23 $$ NJZ001-105-106-008-010-013-015-019>022-104-080700- NEW JERSEY CITY SKY/WX TMP DP RH WIND PRES REMARKS NEWARK/LIBERTY CLOUDY 39 24 55 NE15G23 29.86F WCI 31 TETERBORO CLOUDY 39 20 46 NE8G18 29.86F WCI 33 CALDWELL MOCLDY 37 21 52 NE7 29.88F WCI 32 MORRISTOWN MOCLDY 36 21 55 NE7 29.88F WCI 30 SOMERVILLE MOCLDY 38 22 52 N7 29.84F WCI 33 SUSSEX CLOUDY 27 21 78 CALM 29.88F ANDOVER N/A 31 22 69 CALM 29.87F TRENTON MOCLDY 37 23 56 N13 29.82F WCI 29 MILLVILLE CLOUDY 39 30 70 N16G23 29.75F WCI 30 ATLANTIC CITY CLOUDY 40 34 79 N18G26 29.73F WCI 31 WRIGHTSTOWN CLOUDY 37 36 96 N16 29.77F WCI 28 TOMS RIVER MOCLDY 39 30 70 NE16G24 29.78F WCI 30 BELMAR MOCLDY 39 27 60 NE14G22 29.79F WCI 31 $$ PAZ047>061-062-071-080700- EASTERN PENNSYLVANIA CITY SKY/WX TMP DP RH WIND PRES REMARKS PHILADELPHIA CLOUDY 40 24 53 NE15 29.82F WCI 32 ALLENTOWN CLOUDY 33 20 58 NE6 29.86F WCI 28 SCRANTON PTCLDY 35 19 52 E5 29.86F WCI 31 $$ CTZ002-004>006-009-010-012-RIZ004-006-007-MAZ004-011-015-080700- SOUTHERN NEW ENGLAND IN CT CITY SKY/WX TMP DP RH WIND PRES REMARKS BRADLEY INTL CLOUDY 32 24 72 N10 29.94F WCI 24 HARTFORD CLOUDY 35 26 69 N8 29.93F WCI 29 DANBURY CLOUDY 34 22 61 NE12 29.90F WCI 25 WTRBRY/OXFORD CLOUDY 34 19 55 NE10 29.89F WCI 26 BRIDGEPORT MOCLDY 37 26 64 NE14 29.88F WCI 28 MERIDEN MOCLDY 36 27 69 N9 29.91F WCI 29 NEW HAVEN CLOUDY 36 27 69 NE13 29.88F WCI 27 CHESTER FAIR 36 30 80 NE13G20 29.87F WCI 27 GROTON MOCLDY 37 33 85 NE16G25 29.86F WCI 28 WILLIMANTIC CLOUDY 36 28 73 NE10 29.91F WCI 28 IN RI CITY SKY/WX TMP DP RH WIND PRES REMARKS PROVIDENCE MOCLDY 36 29 75 NE15 29.92F WCI 27 BLOCK ISLAND CLOUDY 39 34 81 NE18G33 29.83F WCI 30 WESTERLY CLOUDY 37 30 75 NE9 29.87F WCI 30 IN MA CITY SKY/WX TMP DP RH WIND PRES REMARKS BOSTON CLOUDY 38 29 70 NE22G32 29.99F WCI 27 WORCESTER CLOUDY 31 25 78 NE14G22 29.92F WCI 21 WESTFIELD CLOUDY 30 23 75 N9 29.96F WCI 22 PROVINCETOWN CLOUDY 39 30 70 NE24G37 29.95F WCI 28 NANTUCKET CLOUDY 42 32 67 NE26G40 29.84F $$ ANZ330-335-338-340-345-350-353-355-080700- COASTAL MARINE OBSERVATIONS STATION/POSITION TIME SKY/WX TEMP WIND PRES VSBY WAVE AIR SEA DIR/SP/G HT/PER (UTC) (F) (DEG/KT/KT) (MB) (MI) (FT/S) NY HARB ENTRANCE 0450 41 44 40/ 23/ 27 1010.3 5/ 5 4S FIRE IS NOT AVBL 20S FIRE ISLAND 0450 42 43 50/ 25/ 31 1009.3 6/ 6 GREAT SOUTH BAY NOT AVBL 23SW MTP 0550 42 45 60/ 29/ 37 1008.0 8/ 6 HUDSON CANYON 0450 45 50 1005.5 10/ 7 KINGS POINT 0500 38 39 90/ 7/ 14 1012.1 EXECUTION ROCKS NOT AVBL CENTRAL LI SOUND 0515 38 40/ 17/ 21 N/A 3/ 4 EASTERN LI SOUND 0500 39 42 40/ 17/ 23 N/A ROBBINS REEF 0500 40 40/ 21/ 24 1011.1 $$ >>>>>>>>>>>>>>>>>>>>>>>>>>>> KEY <<<<<<<<<<<<<<<<<<<<<<<<<<< > < > SKY/WX - SKY CONDITION/PRESENT WEATHER < > TMP - TEMPERATURE IN FAHRENHEIT < > DP - DEWPOINT IN FAHRENHEIT < > RH - RELATIVE HUMIDITY IN PERCENT < > WIND - DIRECTION AND SPEED IN MPH < > PRES - MEAN SEA LEVEL PRESSURE IN INCHES OF HG < > WCI - WIND CHILL INDEX < > VSB - VISIBILITY IN MILES < > HX - HEAT INDEX < > TC - TEMPERATURE IN CELSIUS < > VRB - VARIABLE WIND DIRECTION < > < >>>>>>>>>>>>>>>>>>>>>>>>>>>> KEY <<<<<<<<<<<<<<<<<<<<<<<<<<<

USA.gov is the U.S. government's official web portal to all federal, state and local government web resources and services.